User: anonymous   Login
Location: Grandview
(34.8900°N, 117.1058°W)
Time: 05:21:55
(UTC-08:00)
Language:

STRAND 1 - Orbit

View from above orbital plane
View from above orbital plane
View from above satellite
View from above satellite

Ground track
Ground track

The orbit data is extracted from the following two-line orbital elements,

1 39090U 13009E   18017.50259559 +.00000033 +00000-0 +27010-4 0  9991
2 39090 098.5334 225.7152 0009763 030.6852 329.4902 14.35007090256199
Epoch (UTC): 17 January 2018 12:03:44
Eccentricity: 0.0009763
inclination: 98.5334°
perigee height: 768 km
apogee height: 782 km
right ascension of ascending node: 225.7152°
argument of perigee: 30.6852°
revolutions per day: 14.35007090
mean anomaly at epoch: 329.4902°
orbit number at epoch: 25619

The dashed part of the orbit path shows where the satellite is in the earth's shadow,  

DLR